"Pseudo-MPEC" for C297M82

Created 2020 Feb 28 3:07:12 UT using Find_Orb

Click here for an explanation of pseudo-MPECs

 
 Astrometry: 
     C297M82  C2020 02 26.26942 10 57 10.65 +10 52 07.4    ~2Q77 19.5 GVNEOCPG96
     C297M82  C2020 02 26.27448 10 57 14.13 +10 50 37.8    ~2Q77 19.2 GVNEOCPG96
     C297M82  C2020 02 26.27954 10 57 17.64 +10 49 08.5    ~2Q77 19.2 GVNEOCPG96
     C297M82  C2020 02 26.28460 10 57 21.10 +10 47 38.2    ~2Q77 20.3 GVNEOCPG96
     C297M82  C2020 02 26.31336 10 57 40.85 +10 39 08.9    ~2Q8M       VNEOCP703
     C297M82  C2020 02 26.31858 10 57 44.47 +10 37 35.0    ~2Q8M 19.4 GVNEOCP703
     C297M82  C2020 02 26.32381 10 57 48.11 +10 36 02.2    ~2Q8M 19.2 GVNEOCP703
     C297M82  C2020 02 26.32903 10 57 51.65 +10 34 31.0    ~2Q8M 20.0 GVNEOCP703
     C297M82 KC2020 02 26R(/xvAID1c)+'BAD21nAUeQUs$!D0]-66)W_'C\Lacog*mTp;uK[711
     C297M82 KC2020 02 26ZT+5R;L_,bhcGJ,#,3dI\R-O,#k'(LaZl+3bXrn@;1BeEK+0tg'_711
     C297M82 KC2020 02 26a]AgD^Hki5S!-!vH2g*=85'fCnsy-4\N[f$L09Y1Z-Il%6wC)f$o711
     C297M82  C2020 02 26Cc!J*8y`sedEOW$aX8H[*Nq[KTOJEQg;-8EEk,0J=`\uGn3IOqw-Q63
     C297M82  C2020 02 26HU/RYT]FIj8ni)Ta:Y$;y!cfJ8^lk$GTV.:'W^?%NIZi=mn=.GrqQ63
     C297M82  C2020 02 26hvcLxUq#WKY]3MDf^#na]]$*+ulSG=uCGB6rEmCX*0,ITraW@Ho#Q63
     C297M82  C2020 02 26S/UFc7Ej8g0fM-EW=+KWg\wi+o_cJ_%HpLl.mLZy%%Wv07GgY^dHQ63
     C297M82  C2020 02 26Cr\(vAa#jX)\@v/_Vb[?;E1fj*lxIdZ+;FrlX!(yQk8.TVCsKC^hQ63
     C297M82  C2020 02 26/NB:A@=_!TWL#['+ZYwLA+\dX.-=vqkef9(L:^ZK`aNAhYU!0[B;Q63
     C297M82  C2020 02 26atLH7s\@^I3fOM$/Rep`9`nJQk@o,:uT+w(ArfD+-M31]ev-l],SQ63
     C297M82  C2020 02 26o0*:PTFjOTO'\KSIo^0CKAZkrA7UvCbkSF+*T+N^_XeB)ERVUu\vQ63
     C297M82  C2020 02 26/MnQ#Ma?rnfWR@b[$G9CCv;hNLw$.N35BSEn?=_NoZj*^lw\5swXQ63
     C297M82  C2020 02 26!IU%1]9FZWSZ#GStd9#3Mm=1_:GOgE-hHn4aZZrhnO5!JSn'@At7Q63
     C297M82  C2020 02 26-ZQT/rSpaVf/j@J$TBlr\$v5r#V:wmG1yUtK/Dfe1u/QE3`Bb:bfQ63
     C297M82  C2020 02 26jQ9m-SDUTV./*3rO7`OFkOZQq:n1ZUSsH;lJ42D-Ep6Ebvu.AJBMQ63
     C297M82  C2020 02 26A\A,^Ual)c-//1DfCBshl/hT_c=Zg_abB(HZ8cLAL3*5D(!g$t0qQ63
     C297M82  C2020 02 26]xKv;B1((rD$Ul8mU?h[RLpQUrrYF(*^Z04uREWZr!8MmQtp]h.SQ63
     C297M82  C2020 02 26w1.;iKS$Rv8Jw+wE\KG,g+.0m-sBS*ZrM_%lcWBV(?aYdC+f)rKkQ63
     C297M82  C2020 02 26\-jk)bD4Bp;(u-ES)![Ib:g_AstrometryyShr$Z.BAxgKa29](TQ63
     C297M82 KC2020 02 26?$e1EflH)`6B`C12E@xfsfkZx*=Z_]8UIBoIKV9np\Y(8X7xu#j/K63
     C297M82 KC2020 02 26UNM5gd(B@QCb!F41_\'uoc4M?K%;(IJ]xQL?oTb5`_xa_fLDSsqpK63
     C297M82 KC2020 02 26ax5fW*n'/+%`Xx02`ELyw3^c_\elV6qh,^F6,'y8``p^J\Eo/DmvK63
     C297M82 KC2020 02 27]06?P(OfyG/+_/uk6u)v5y4_\Y.kXUAofW4:d\9ekxJTsojHy@7xJ04
     C297M82 KC2020 02 27Uv4hredacted;_Y:!oZX*vLH3egX=73k,W9_xQ8-'LO@`P[aEos)J04
     C297M82 KC2020 02 27FQYer7)cJNJ\g/4rGATNpt4/OF%)K[*B-u%qSA\tPJmxkG;u:p+CJ04
     C297M82 KC2020 02 27.01441011 06 45.04 +07 03 49.5    ~2R17 18.9 GVNEOCPC95
     C297M82 KC2020 02 27.02806311 06 54.94 +06 59 31.3    ~2R17 19.2 GVNEOCPC95
     C297M82 pC2020 02 27pdEyi4sDBHI9HVZ^P0.CbSDhI@\?%%5i%4X'I+%E-(^0^n4(W2kdL01
     C297M82 KC2020 02 27033PJ,/)uR.ddigoH2WPpg4h5#pli;Wy)D*SQ9\lEjVhW7C]Am$0L01
     C297M82 KC2020 02 27[93R,G=UPa_)ly@sE?=UaO[RrrNfP^!jKSP'!m\+.Bi!AcN@\kuCL01
     C297M82  C2020 02 27t1PG)$3Z4$gBTnw!P(/LKdG48gp^cnXtxclickYWlkr[o_W#S.$]W86
     C297M82  C2020 02 27j40xWPkEGOboa6mAmIg9A.Z3fgAjJ2$4NWF$HE%Q-NlCAgjjU)e1W86
     C297M82  C2020 02 27lEE22f7R[K8q_:k#m74%kYZNxEtxj,01chereGcDMD6x]Po!urH2W86
     C297M82  C2020 02 27s77JKFHquF;'1Lj2jh_h$8%T-Z)%)Rt-pDYqF*lmEsXLjp`*^eB=W86
     C297M82  C2020 02 27sOw#.sa1x9(ECNliJ;@:1DIE@fsocPXDI?x)*wCgv@;h/=8$],i+W86
     C297M82  C2020 02 278=KX6uvfStiLrMVIpCEj9gVYXnfH2q:)vMtKI`$C**oW;s'8rqQ`W86
     C297M82  C2020 02 27K.?*+,hVK-MEXP`7MjAwG6p()hyZ(KBH/x-ofolKw7)Mw@UARh,HW86
     C297M82  C2020 02 27J5jJpsOlu^k\S1#%y;c'l]\4yhV`j'uZ+E-Z8\r]?%ns'LS[Ab3yW86
     C297M82  C2020 02 27x!SfX90_4Dj4R$hvc-!1[(]4c$P%l)#m\CforKuSddx.x*f$rbAZW86
     C297M82  C2020 02 27=Roj]cH3C:p.Sx3(+Rl]:Dg':CCNaPCa@Z$hGG]=kpXy+dEC%j0,W86
     C297M82  C2020 02 27l$O6,6@)Q`cV(0#eNYVxYiw?Swb2gLY+HI78iAj)*F2o#wC].ApQW86
     C297M82  C2020 02 27s5*pw=7$5J/7tFP=At!t3uwdr4rm+I@t.6L%'P:R9R_\C[Vxa*16W86
     C297M82  C2020 02 27'v.pHUUrvOZf!_n+yFD+L^AI?QHZ[3p=/X323h*cqdPsIx$DIbJ-W86
     C297M82  C2020 02 27)s5u`p/0grh*UBhs:,IgUGE2EHNI/1B5Fruq[_^SM98]5VO3YpBZW86
     C297M82  C2020 02 27.Yd\(tn$c:v9e1xJe=#=R]s\p,Rm@n!y3^'aR_JF\=2m62BSi9+MW86
     C297M82  C2020 02 27fAwrtj8Blk/*Lp\1u\G8Ho.8'*kKCQR/rO[F@sifxpjI,Dh#6krEW86
     C297M82  C2020 02 27)TOO%MZW\,`SZkvF0tTwVuEZ26,1s`:Heg\vJi]BB=3wl4RD7b?\W86
     C297M82  C2020 02 27v+L)EiWH/x*_HMBDI:XgX/4laX]$w?)E)ykM0m\/Qu1%rV(2hJDwW86
     C297M82  C2020 02 27^j9pN=GG=*m!*8N:+d#6_5oWkxC3Hg0`X#V,@#S8.F9l8g`w+d4jW86
     C297M82  C2020 02 27y]D[EW]3gCEkSQeW^#?_ew]Kuh5c3hF52(Zi?G1clVwAM6yFu;1LW86
     C297M82  C2020 02 27S7!ALdT;1CMm$q2%(OL^F#Ys9XthN_o'vpHI5WFEmXY8x/d6UAp(W86
     C297M82  C2020 02 27.17141 11 09 00.86 +06 14 28.6    ~2R4b 19.3 GVNEOCPI52
     C297M82  C2020 02 275(V#VL78w:;2q32KY%*O8B(explanationG`V'h9qIt'e?XwYs/*W86
     C297M82  C2020 02 27.17411 11 09 02.96 +06 13 35.8    ~2R4b 19.8 GVNEOCPI52
     C297M82  C2020 02 27.17530 11 09 03.87 +06 13 14.2    ~2R4b 18.8 GVNEOCPI52
     C297M82  C2020 02 27.17549 11 09 03.97 +06 13 10.2    ~2R4b 19.8 GVNEOCPI52
     C297M82 KC2020 02 27-uU@T9Im5Qnup%W^rs/AG7-H0eEC8/My*\?_PC,etaD%r]wEl?m]734
     C297M82 KC2020 02 27oGE:j]#q]..VG^y-It-dg\!(H7O_=D-8wI7$Wm%;m2As)_:?;Y!=734
     C297M82 KC2020 02 27JPhNc^g;^)duauCf66R.WK7pfWeyX\Ic9k7P$=ha[HVahFw@U.FF734
     C297M82 KC2020 02 27Xf#De64ysZjv0o9xVOY+W!,TB;Bau.??MUy;.suxI_G8Xk.kQfl]734
     C297M82 KC2020 02 27@hR7092rX+Eg*aOW6(ZvOw4aBvRsbE0]3btDV,47VuW+-m3gC=W$734
     C297M82 KC2020 02 27aTWZpVESiaMg=3*,$bWGaJ[(nRG%0.3gB*Cg7gO?TlR8xW8:1obrH36
     C297M82 KC2020 02 27twBOG!_/5'Rs$sdkH)o68GmQbX$*N!*p*,rCoaJG4)uxNC(NlrgnH36
     C297M82 KC2020 02 27er0wr4'G5eqsKCA*ABJ=qR;S'aKHUj@eglyHmh3ea_.$ZmyeIt\UH36
     C297M82 KC2020 02 275i\P:*,^$KKqKMdmaO/83Z+f6p5dSjSB'*7ejuj;!a@N%4iUCCm0H36
     C297M82  C2020 02 27.33767 11 11 03.53 +05 21 12.4    ~2R8q 19.5 GVNEOCPG96
     C297M82  C2020 02 27.34288 11 11 07.32 +05 19 31.6    ~2R8q 19.3 GVNEOCPG96
     C297M82  C2020 02 27.34808 11 11 11.12 +05 17 50.7    ~2R8q 19.1 GVNEOCPG96
     C297M82  C2020 02 27.35328 11 11 14.90 +05 16 09.7    ~2R8q 19.4 GVNEOCPG96
     C297M82 KC2020 02 27WRvnHe2U/fRjpiV`FUsavf0EA-ihqFtmnC2'Rum*f=MBWFh2?).A711
     C297M82 KC2020 02 27orgk%03vV.CK+/,]+Shqpo9';[m[dV3Nw$.-l^(C_kOBv\dm,Z`3711
     C297M82 KC2020 02 27uu09\AM1r+?ZwWxQ_u6+$3'`wOlWiY-e_qXv8+a1kZkB7CNQd\BQ711
     C297M82 KC2020 02 27.94665 11 19 26.81 +01 59 45.7    ~2RN7 19.1 VqNEOCPI93
     C297M82 KC2020 02 27.94934 11 19 28.86 +01 58 51.4    ~2RN7 19.2 VqNEOCPI93
     C297M82 KC2020 02 27.95203 11 19 30.95 +01 57 57.3    ~2RN7 19.4 VqNEOCPI93

Station data:
(703) Catalina Sky Survey  (N32.417006 W110.732640)  US/Arizona.  Observers
   T. A. Pruyne, B. M. Africano, E. J. Christensen, G. A. Farneth, D. C.
   Fuls, A. R. Gibbs, A. D. Grauer, H. Gröller, J. A. Johnson, R. A.
   Kowalski, S. M. Larson, G. J. Leonard, D. Rankin, R. L. Seaman, F. C.
   Shelly. 0.68 m Schmidt + 10K CCD.
(711) McDonald Observatory, Fort Davis  (N30.671481 W104.021500)  US/Texas.
   0.76-m f/3.0 reflector.
(734) Farpoint Observatory, Eskridge  (N38.890107 W96.001400)  US/Kansas.
   Observer G. Hug. 0.69-m reflector + CCD.
(C95) SATINO Remote Observatory, Haute Provence  (N43.932042 E5.712390)
   France. 0.60-m f/3.2 Newtonian reflector + CCD.
(G96) Mt. Lemmon Survey  (N32.442754 W110.788720)  US/Arizona.  Observers T.
   A. Pruyne, B. M. Africano, E. J. Christensen, G. A. Farneth, D. C. Fuls,
   A. R. Gibbs, A. D. Grauer, H. Gröller, J. A. Johnson, R. A. Kowalski, S.
   M. Larson, G. J. Leonard, D. Rankin, R. L. Seaman, F. C. Shelly. 1.5-m
   reflector + 10K CCD.
(H36) Sandlot Observatory, Scranton  (N38.797693 W95.706400)  US/Kansas.
   Observer G. Hug. 0.56-m reflector + CCD.
(I52) Steward Observatory, Mt. Lemmon Station  (N32.442547 W110.788920)
   US/Arizona.  Observers T. A. Pruyne, B. M. Africano, E. J. Christensen, G.
   A. Farneth, D. C. Fuls, A. R. Gibbs, A. D. Grauer, H. Gröller, J. A.
   Johnson, R. A. Kowalski, S. M. Larson, G. J. Leonard, D. Rankin, R. L.
   Seaman, F. C. Shelly. 1.0-m reflector + CCD.
(I93) St Pardon de Conques  (N44.558710 W0.203000)  France.  Observer F.
   Losse. 0.40-m f/3.7 reflector + CCD.
(J04) ESA Optical Ground Station, Tenerife  (N28.300924 W16.511830)  Canary
   Islands (Spain).  Observer D. Abreu. Measurers M. Micheli, D. Koschny, E.
   Schwab, M. Busch, A. Knöfel. 1.0-m f/4.4 reflector + CCD.
(K63) G. Pascoli Observatory, Castelvecchio Pascoli  (N44.082410 E10.462000)
   Italy.
(L01) Višnjan Observatory, Tičan  (N45.290900 E13.749300)  Croatia.
   Observers K. Korlević, E. Pettarin. Measurer E. Pettarin. 1.0-m f/2.9
   reflector + CCD.
(Q63) Siding Spring-LCO A  (S31.273002 E149.070640)  Australia/NSW.
   Observers T. Lister, S. Greenstreet, E. Gomez. 1.0-m f/8 Ritchey-Chrétien
   + CCD.
(W86) Cerro Tololo-LCO B  (S30.167328 W70.804670)  Chile.  Observer T. Lister.
    1.0-m f/8 Ritchey-Chrétien + CCD.

Orbital elements:  C297M82
   Perihelion 2020 Mar 8.609350 +/- 0.00385 TT = 14:37:27 (JD 2458917.109350)
Epoch 2020 Feb 27.0 TT = JDT 2458906.5   Earth MOID: 0.0342   AutoNEOCP
M 356.69967809 +/- 0.0037           (J2000 ecliptic)
n   0.31107673 +/- 0.000366         Peri.  192.01886 +/- 0.0049
a   2.15720307 +/- 0.00169          Node   338.28708 +/- 0.00019
e   0.5264445 +/- 0.000364          Incl.    6.96710 +/- 0.0035
P   3.17                   H 26.0   G  0.15   U  7.4  
q 1.02155525 +/- 1.8e-5    Q 3.29285089 +/- 0.00338
From 83 observations 2020 Feb. 26-27 (40.4 hr); mean residual 0".46
Residuals in arcseconds: 
200226 G96  .33+  .14+    200226 K63  .98-  1.3+    200227 W86  .22-  .46+    
200226 G96  .06+  .16-    200226 K63  .10-  .44+    200227 W86  .01-  .08-    
